Abischthof, метеограме

Abischthof: време по сату
Субота, 18 Jануара
Време Падавине Температура Осећа се Притисак Влажност Ветар
11:00 0.01 мм +4.4° +4.3° 733.000 мм.ж.с 80% 3 м/с, З
12:00 0.01 мм +5° +4.8° 733.000 мм.ж.с 76% 3 м/с, З
13:00 0.01 мм +5.6° +5.3° 732.000 мм.ж.с 71% 3 м/с, З
14:00 0.04 мм +5.2° +4.9° 732.000 мм.ж.с 73% 3 м/с, З
15:00 0.04 мм +4.8° +4.6° 732.000 мм.ж.с 75% 2 м/с, З
16:00 0.04 мм +4.4° +4.2° 732.000 мм.ж.с 77% 2 м/с, З
17:00 0.01 мм +3.1° +3.1° 733.000 мм.ж.с 82% 1 м/с, З
18:00 0.01 мм +1.9° +1.9° 733.000 мм.ж.с 86% 1 м/с, З
19:00 0.01 мм +0.7° +0.7° 733.000 мм.ж.с 91% 1 м/с, З
20:00 0 мм +0.5° +0.5° 734.000 мм.ж.с 91% 0 м/с, СЗ
21:00 0 мм +0.3° +0.3° 734.000 мм.ж.с 91% 0 м/с, СЗ
22:00 0 мм +0.1° +0.1° 734.000 мм.ж.с 91% 0 м/с, С
23:00 0 мм +0.1° +0.1° 734.000 мм.ж.с 92% 0 м/с, С
Недеља, 19 Jануара
Време Падавине Температура Осећа се Притисак Влажност Ветар
00:00 0 мм +0.1° +0.1° 734.000 мм.ж.с 92% 0 м/с, С
01:00 0 мм +0.1° +0.1° 734.000 мм.ж.с 92% 0 м/с, С
02:00 0.01 мм -0.1° -0.1° 734.000 мм.ж.с 92% 1 м/с, С
03:00 0.01 мм -0.3° -0.3° 734.000 мм.ж.с 93% 1 м/с, С
04:00 0.01 мм -0.5° -0.5° 734.000 мм.ж.с 93% 1 м/с, С
05:00 0 мм -0.6° -0.6° 735.000 мм.ж.с 93% 1 м/с, С
06:00 0 мм -0.7° -0.7° 735.000 мм.ж.с 93% 1 м/с, С
07:00 0 мм -0.8° -0.8° 735.000 мм.ж.с 94% 1 м/с, СИ
08:00 0 мм -0.1° -0.1° 736.000 мм.ж.с 90% 1 м/с, СИ
09:00 0 мм +0.6° +0.5° 736.000 мм.ж.с 86% 1 м/с, СИ
10:00 0 мм +1.2° +1.1° 736.000 мм.ж.с 82% 1 м/с, СИ
11:00 0.02 мм +2.1° +1.9° 737.000 мм.ж.с 77% 2 м/с, СИ
12:00 0.02 мм +2.9° +2.6° 737.000 мм.ж.с 71% 2 м/с, СИ
13:00 0.02 мм +3.7° +3.3° 737.000 мм.ж.с 66% 3 м/с, СИ
14:00 0.07 мм +3.4° +3° 737.000 мм.ж.с 68% 3 м/с, СИ
15:00 0.07 мм +3° +2.7° 738.000 мм.ж.с 69% 3 м/с, СИ
16:00 0.07 мм +2.7° +2.4° 738.000 мм.ж.с 71% 3 м/с, СИ
17:00 0 мм +1.7° +1.5° 738.000 мм.ж.с 77% 3 м/с, СИ
18:00 0 мм +0.6° +0.5° 739.000 мм.ж.с 82% 3 м/с, СИ
19:00 0 мм -0.5° -0.5° 739.000 мм.ж.с 87% 2 м/с, СИ
20:00 0 мм -0.5° -0.6° 740.000 мм.ж.с 88% 3 м/с, СИ
21:00 0 мм -0.6° -0.7° 740.000 мм.ж.с 89% 3 м/с, СИ
22:00 0 мм -0.7° -0.7° 741.000 мм.ж.с 89% 3 м/с, СИ
23:00 0 мм -0.8° -0.8° 741.000 мм.ж.с 89% 3 м/с, СИ
Понедељак, 20 Jануара
Време Падавине Температура Осећа се Притисак Влажност Ветар
00:00 0 мм -0.8° -0.9° 741.000 мм.ж.с 89% 3 м/с, СИ
01:00 0 мм -0.9° -0.9° 741.000 мм.ж.с 89% 3 м/с, СИ
02:00 0 мм -0.8° -0.9° 741.000 мм.ж.с 88% 4 м/с, СИ
03:00 0 мм -0.7° -0.8° 741.000 мм.ж.с 86% 4 м/с, СИ
04:00 0 мм -0.7° -0.8° 741.000 мм.ж.с 84% 4 м/с, СИ
05:00 0 мм -0.8° -0.9° 741.000 мм.ж.с 84% 4 м/с, СИ
06:00 0 мм -1° -1.1° 741.000 мм.ж.с 84% 4 м/с, СИ
07:00 0 мм -1.1° -1.2° 742.000 мм.ж.с 84% 4 м/с, СИ
08:00 0 мм -0.6° -0.8° 742.000 мм.ж.с 80% 5 м/с, СИ
09:00 0 мм -0.1° -0.3° 742.000 мм.ж.с 75% 5 м/с, СИ
10:00 0 мм +0.5° +0.2° 742.000 мм.ж.с 71% 5 м/с, СИ

Такође

Meteograms hourly weather Мапе времена Преглед времена
Meteograms hourly weather Мапе времена Преглед времена
 
Време у Србији:
О проjекту
© meteoprog.rs 2003-2020.
Meteoprog.ua - погода в Украине 0.0470
sitemap